{"data":{"norad_id":61738,"epoch":"2026-09-22T21:04:20.520192Z","epoch_age_seconds":94764,"freshness":"FRESH","line1":"1 61738U 24199D   26265.87801528  .00001813  00000+0  15804-3 0  9993","line2":"2 61738  97.3182  99.1673 0007868  95.9365 264.2755 14.98001691146447","mean_motion":14.98001691,"eccentricity":0.0007868,"inclination_deg":97.3182,"raan_deg":99.1673,"arg_perigee_deg":95.9365,"mean_anomaly_deg":264.2755,"bstar":0.00015804,"rev_number":14644,"period_min":96.128062381473,"perigee_km":567.60213414015,"apogee_km":578.54055559163,"semimajor_km":6951.2083448659,"source":"CELESTRAK","updated_at":"2026-09-23T09:00:21.023006Z"}}